Flag for Croatia Weather past 2 weeks in Zagreb, Croatia

Now
63 °F

Clear.


Feels Like: 63 °F
Forecast: 69 / 93 °F
Wind: 2 mph from Southwest

Location: Zagreb / Pleso

Current Time: Jul 6, 2015 at 5:40:04 AM

Latest Report: Jul 6, 2015 at 5:00 AM


Visibility: 10 mi

Pressure: 30.04 "Hg

Humidity: 88%

Dew point: 59 °F

Location of ZagrebLocation

Historic Weather in Zagreb — Graph

°F

Zagreb temperature yesterday

Maximum temperature yesterday: 88 °F (at 2:00 PM)
Minimum temperature yesterday: 59 °F (at 5:00 AM)
Average temperature yesterday: 76 °F

Past Weeks' High & Low Weather Summary

 TemperatureHumidityPressure
High88 °F (Jul 2, 4:00 PM)100% (Jun 21, 4:30 AM)30.30 "Hg (Jun 21, 4:30 AM)
Low48 °F (Jun 22, 4:00 AM)30% (Jun 22, 3:30 PM)29.80 "Hg (Jun 23, 4:00 AM)
Average69 °F64%30.11 "Hg
* Reported Jun 21 4:00 AM — Jul 6 4:30 AM, Zagreb, Weather by CustomWeather, © 2015

Note: Actual official high and low records may vary slightly from our data, if they occured in-between our weather recording intervals... More about our weather records

Advertising

Zagreb weather history for previous 24 hours

 ConditionsComfort  
Time TempWeatherWind HumidityBarometerVisibility
4:30 AM
Mon, Jul 6
63 °FClear.3 mph83%30.04 "Hg10 mi
4:00 AM63 °FClear.5 mph83%30.04 "Hg10 mi
3:30 AM63 °FClear.1 mph88%30.04 "Hg10 mi
3:00 AM63 °FClear.1 mph83%30.04 "Hg10 mi
2:30 AM63 °FClear.2 mph88%30.04 "Hg10 mi
2:00 AM64 °FClear.2 mph83%30.04 "Hg10 mi
1:30 AM66 °FClear.2 mph78%30.04 "Hg10 mi
1:00 AM66 °FClear.2 mph83%30.04 "Hg10 mi
12:30 AM66 °FClear.2 mph83%30.07 "Hg10 mi
12:00 AM68 °FClear.No wind78%30.07 "Hg10 mi
11:30 PM
Sun, Jul 5
70 °FClear.2 mph73%30.07 "Hg10 mi
11:00 PM70 °FClear.1 mph73%30.07 "Hg10 mi
10:30 PM72 °FClear.3 mph69%30.07 "Hg10 mi
10:00 PM75 °FClear.3 mph61%30.04 "Hg10 mi
9:30 PM77 °FSunny.2 mph54%30.04 "Hg10 mi
9:00 PM79 °FSunny.1 mph51%30.04 "Hg10 mi
8:30 PM84 °FSunny.2 mph43%30.04 "Hg10 mi
8:00 PM86 °FSunny.3 mph38%30.04 "Hg10 mi
7:30 PM86 °FPassing clouds.3 mph38%30.04 "HgN/A
7:00 PM88 °FPassing clouds.6 mph33%30.04 "HgN/A
6:30 PM88 °FPassing clouds.6 mph33%30.04 "HgN/A
6:00 PM88 °FPassing clouds.7 mph33%30.04 "HgN/A
5:30 PM88 °FPassing clouds.6 mph33%30.04 "HgN/A
5:00 PM88 °FPassing clouds.7 mph35%30.07 "HgN/A
4:30 PM88 °FPassing clouds.3 mph35%30.07 "HgN/A
4:00 PM88 °FPassing clouds.6 mph35%30.07 "HgN/A
3:30 PM88 °FPassing clouds.7 mph35%30.07 "HgN/A
3:00 PM88 °FSunny.5 mph35%30.07 "Hg10 mi
2:30 PM88 °FPassing clouds.5 mph35%30.09 "HgN/A
2:00 PM88 °FPassing clouds.6 mph35%30.09 "HgN/A
1:30 PM86 °FSunny.5 mph38%30.12 "Hg10 mi
1:00 PM86 °FSunny.1 mph35%30.12 "Hg10 mi
12:30 PM86 °FPassing clouds.7 mph38%30.12 "HgN/A
12:00 PM86 °FSunny.2 mph38%30.12 "Hg10 mi
11:30 AM84 °FSunny.2 mph43%30.12 "Hg10 mi
11:00 AM82 °FSunny.2 mph48%30.12 "Hg10 mi
10:30 AM81 °FSunny.3 mph51%30.12 "Hg10 mi
10:00 AM79 °FSunny.2 mph58%30.12 "Hg10 mi
9:30 AM77 °FSunny.1 mph61%30.15 "Hg10 mi
9:00 AM75 °FSunny.2 mph65%30.15 "Hg10 mi
8:30 AM72 °FSunny.1 mph73%30.15 "Hg10 mi
8:00 AM70 °FSunny.1 mph83%30.15 "Hg10 mi
7:30 AM66 °FSunny.2 mph83%30.15 "Hg10 mi
7:00 AM64 °FSunny.2 mph83%30.15 "Hg10 mi
6:30 AM61 °FSunny.1 mph88%30.12 "Hg10 mi
5:30 AM59 °FClear.No wind82%30.12 "Hg10 mi
5:00 AM59 °FClear.1 mph82%30.12 "Hg10 mi
Weather by CustomWeather, © 2015

See weather overviewHow to use our weather pages